Regional Weather Roundup
Issued by NWS

Home | Current Version | Previous Version | Text Only | Print | Product List | Glossary Off
Versions: 1 2 3 4 5 6 7 8 9 10 11 12 13 14 15 16 17 18 19 20 21 22 23 24 25 26 27 28 29 30 31 32 33 34 35 36 37 38 39 40 41 42 43 44 45 46 47 48 49 50

000
ASUS44 KMEG 101110
RWRTN
TENNESSEE HOURLY STATE WEATHER ROUNDUP
NATIONAL WEATHER SERVICE MEMPHIS TN
500 AM CST SUN DEC 10 2017

TNZ002-004-019-021-049-052-054-088>092-101200-
WEST TENNESSEE

CITY           SKY/WX    TMP DP  RH WIND       PRES   REMARKS
MEMPHIS INTL   CLEAR     27  23  85 S3        30.28F
NWS MEMPHIS      N/A     24 N/A N/A MISG        N/A
JACKSON        CLEAR     19  17  92 CALM      30.28S
DYERSBURG      CLEAR     25  22  88 S5        30.28S WCI  19
SOMERVILLE     CLEAR     23  21  93 CALM      30.26F
COVINGTON      CLEAR     23  19  86 CALM      30.29S
UNION CITY     CLEAR     18  16  93 S7        30.25F WCI   8
BOLIVAR        CLEAR     21  19  93 CALM      30.27S
PARIS          CLEAR     18  16  93 CALM      30.23F
HUNTINGDON     CLEAR     19  18  93 CALM      30.25R
LEXINGTON      CLEAR     19  18  93 CALM      30.27R
SAVANNAH       PTCLDY    19  19 100 CALM      30.28R
$$

TNZ008-025-027-028-033-062-065-066-101200-
NORTH MIDDLE TENNESSEE

CITY           SKY/WX    TMP DP  RH WIND       PRES   REMARKS
NASHVILLE      CLEAR     23  19  85 S5        30.26R WCI  17
PORTLAND       CLEAR     25  16  68 SW5       30.21S WCI  19
CLARKSVILLE    PTCLDY    22  15  75 W3        30.24S
SMYRNA         CLEAR     21  18  88 CALM      30.27R
COOKEVILLE     CLEAR     18  16  93 CALM      30.21R
GALLATIN       CLEAR     23  18  80 CALM      30.27R
CROSSVILLE     CLEAR     19  14  81 SW3       30.16R
$$

TNZ061-075-076-078-094-096-097-101200-
SOUTH MIDDLE TENNESSEE

CITY           SKY/WX    TMP DP  RH WIND       PRES   REMARKS
FAYETTEVILLE   CLEAR     23  21  93 W3        30.24R
TULLAHOMA      CLEAR     19  18  93 CALM      30.23R
WINCHESTER     CLEAR     19  18  93 CALM      30.24R
MCMINNVILLE    CLEAR     21  18  86 W5        30.23R WCI  15
COLUMBIA       CLEAR     21  21 100 CALM      30.25R
SHELBYVILLE    CLEAR     19  18  93 CALM      30.25R
$$

TNZ017-018-042-046-047-101200-
NORTHEAST TENNESSEE

CITY           SKY/WX    TMP DP  RH WIND       PRES   REMARKS
TRI CITIES     CLOUDY    29  19  66 SW7       30.14R WCI  22
ELIZABETHTON   CLOUDY    28  18  64 W8        30.14R WCI  20
$$

TNZ012-013-036-069-073-074-101200-
CENTRAL EAST TENNESSEE

CITY           SKY/WX    TMP DP  RH WIND       PRES   REMARKS
KNOXVILLE      CLEAR     27  21  78 SW3       30.19S
OAK RIDGE      CLEAR     25  19  78 CALM      30.22R
DOWNTOWN KNOXV CLEAR     28  18  64 CALM      30.21S
GATLINBURG     CLOUDY    28  16  59 CALM      30.20R
MORRISTOWN     CLOUDY    28  18  64 NW5       30.17R WCI  23
JACKSBORO      CLEAR     25  19  80 CALM      30.22S
$$

TNZ083-085-099-101200-
SOUTHEAST TENNESSEE

CITY           SKY/WX    TMP DP  RH WIND       PRES   REMARKS
CHATTANOOGA    CLEAR     28  19  69 CALM      30.24R
DAYTON         CLOUDY    25  23  93 CALM      30.22R
$$

SKY/WX REPORTED AS FAIR MEANS FEW OR NO CLOUDS BELOW
12 THOUSAND FEET.





USA.gov is the U.S. government's official web portal to all federal, state and local government web resources and services.